This demonstration page uses our WeatherBlox Daily Observations layout. Learn more.

Left ArrowRight Arrow

41.12389, -100.76542

Hourly Observations for March 8, 2020

Temp ( °F °C ) Dew Point ( °F °C ) Humidity (%) Winds ( mph kmh ) Pressure ( in mb ) Visibility ( mi km ) Precip ( " mm )
12:53 am 00:53 Clear 51 10.6 32 0 48 48 SSW 17 28 29.73 1007 10 16 0.00 0.00
1:53 am 01:53 Clear 51 10.6 33 0.6 50 50 S 10 17 29.74 1007 10 16 0.00 0.00
3:53 am 03:53 Clear 50 10 33 0.6 52 52 S 12 19 29.72 1006 10 16 0.00 0.00
4:53 am 04:53 Clear 50 10 33 0.6 52 52 Calm 29.71 1006 10 16 0.00 0.00
5:53 am 05:53 Clear 48 8.9 33 0.6 56 56 Calm 29.70 1006 10 16 0.00 0.00
6:53 am 06:53 Clear 36 2.2 28 -2.2 73 73 ESE 3 6 29.73 1007 10 16 0.00 0.00
7:53 am 07:53 Clear 36 2.2 29 -1.7 76 76 SE 5 7 29.75 1007 10 16 0.00 0.00
8:53 am 08:53 Sunny 37 2.8 31 -0.6 79 79 Calm 29.78 1008 10 16 0.00 0.00
9:53 am 09:53 Sunny 46 7.8 36 2.2 68 68 Calm 29.76 1008 10 16 0.00 0.00
10:53 am 10:53 Sunny 50 10 35 1.7 57 57 W 8 13 29.76 1008 10 16 0.00 0.00
11:53 am 11:53 Sunny 51 10.6 32 0 48 48 WNW 6 9 29.77 1008 10 16 0.00 0.00
12:53 pm 12:53 Sunny 62 16.7 31 -0.6 31 31 W 10 17 29.74 1007 10 16 0.00 0.00
1:53 pm 13:53 Sunny 68 20 32 0 26 26 WNW 6 9 29.72 1007 10 16 0.00 0.00
2:53 pm 14:53 Sunny 76 24.4 32 0 20 20 undefined N/A 29.68 1005 10 16 0.00 0.00
3:53 pm 15:53 Sunny 78 25.6 31 -0.6 18 18 ENE 7 11 29.67 1005 10 16 0.00 0.00
4:53 pm 16:53 Sunny 75 23.9 29 -1.7 18 18 N 13 20 29.67 1005 10 16 0.00 0.00
5:53 pm 17:53 Sunny 75 23.9 31 -0.6 20 20 NNE 12 19 29.68 1005 10 16 0.00 0.00
6:53 pm 18:53 Sunny 72 22.2 32 0 23 23 NE 8 13 29.73 1007 10 16 0.00 0.00
7:53 pm 19:53 Mostly Clear 58 14.4 32 0 38 38 ESE 7 11 29.77 1008 10 16 0.00 0.00
8:53 pm 20:53 Clear 54 12.2 36 2.2 51 51 NE 21 33 29.81 1010 10 16 0.00 0.00
9:53 pm 21:53 Clear 47 8.3 35 1.7 63 63 NE 28 44 29.84 1011 10 16 0.00 0.00
10:53 pm 22:53 Clear 42 5.6 33 0.6 71 71 NNE 10 17 29.95 1014 10 16 0.00 0.00
11:09 pm 23:09 Mostly Cloudy 42 5.6 33 0.6 71 71 VRB 7 11 29.99 1016 10 16 0.00 0.00
11:53 pm 23:53 Cloudy 41 5 32 0 70 70 NE 24 39 29.98 1015 10 16 0.00 0.00

Powered by AerisWeather